Regional Weather Roundup
Issued by NWS Wakefield, VA

Home | Current Version | Previous Version | Graphics & Text | Print | Product List | Glossary On
Versions: 1 2 3 4 5 6 7 8 9 10 11 12 13 14 15 16 17 18 19 20 21 22 23 24 25 26 27 28 29 30 31 32 33 34 35 36 37 38 39 40 41 42 43 44 45 46 47 48 49 50
000
ASUS41 KAKQ 070215
RWRAKQ

REGIONAL WEATHER ROUNDUP
NATIONAL WEATHER SERVICE WAKEFIELD VA
900 PM EST SAT FEB 06 2016

Note: "fair" indicates few or no clouds below 12,000 feet with no
significant weather and/or obstructions to visibility. * = Denotes
station may not report precipitation (e.g., rain,snow,etc.),
thunder or fog.

VAZ042-051-052>054-056-070300-
NORTHERN VIRGINIA

CITY           SKY/WX    TMP DP  RH WIND       PRES   REMARKS
WASH NATIONAL  MOCLDY    38  25  59 S8        30.33R
DULLES         MOCLDY    35  19  52 S6        30.31R
FORT BELVOIR   MOCLDY    31  24  75 CALM      30.32S
QUANTICO       FAIR      34  27  75 NW3       30.34S
FREDERICKSBRG* FAIR      31  24  76 CALM      30.31F
STAFFORD*      FAIR      29  21  73 CALM      30.36F
WARRENTON      FAIR      30  25  79 CALM      30.30F
CULPEPER*      FAIR      29  23  78 CALM      30.31F
MANASSAS*      CLEAR     28  27  93 CALM      30.32S
LEESBURG*      FAIR      34  27  75 S6        30.31S
WINCHESTER     FAIR      36  21  55 S3        30.26F
FRONT ROYAL*   FAIR      34  21  60 S3        30.26F
LURAY*         FAIR      34  19  55 S5        30.26F
$$

VAZ048-049-060>072-079>083-070300-
CENTRAL AND SOUTH CENTRAL VIRGINIA

CITY           SKY/WX    TMP DP  RH WIND       PRES   REMARKS
RICHMOND       FAIR      32  24  72 E3        30.31F
CHESTERFIELD*  FAIR      30  12  47 CALM      30.32F
PETERSBURG*    FAIR      28  25  89 CALM      30.33F
HANOVER        FAIR      29  22  75 CALM      30.33F
TAPPAHANNOCK*  FAIR      32  25  73 SE3       30.33F
QUINTON*       FAIR      28  24  85 S6        30.32F
CHARLOTTSVILLE FAIR      38  16  40 CALM      30.28F
GORDONSVILLE*  FAIR      29  24  80 CALM      30.30S
ORANGE*        FAIR      32  23  69 CALM      30.32F
LOUISA*        FAIR      28  21  74 CALM      30.28F
BUMPASS*       FAIR      30  19  62 CALM      30.30F
FARMVILLE*     FAIR      31  23  74 CALM      30.29F
CREWE*         FAIR      29  25  84 CALM      30.30F
FORT PICKETT*  FAIR      31  22  70 MISG      30.30F
CHASE CITY*    FAIR      30  23  74 CALM      30.29F
CLARKSVILLE*   FAIR      32  23  69 CALM      30.29F
SOUTH HILL*    FAIR      27  24  89 CALM      30.36S
LAWRENCEVILLE* FAIR      30  26  84 CALM      30.30F
EMPORIA*       FAIR      30  27  86 CALM      30.33S
$$

VAZ088>098-070300-
SOUTHEAST VIRGINIA

CITY           SKY/WX    TMP DP  RH WIND       PRES   REMARKS
NORFOLK        FAIR      34  25  69 CALM      30.34S
VIRGINIA BEACH FAIR      35  26  69 CALM      30.33S
NORFOLK NAVAL  FAIR      32  25  75 E3        30.34F
WEST POINT*    FAIR      31  24  77 CALM      30.35F
SALUDA*        FAIR      28  27  93 CALM      30.34F
NEWPORT NEWS   FAIR      31  25  78 CALM      30.34F
LANGLEY AFB    FAIR      33  27  80 CALM      30.33F
FORT EUSTIS    FAIR      32  23  69 SE2       30.31F
WILLIAMSBURG*  FAIR      34  30  86 E5        30.34F
HR EXEC AP*    FAIR      28  25  86 CALM      30.35F
FRANKLIN*      FAIR      29  26  88 NE3       30.32F
US460-WAKEFLD  FAIR      30  25  81 CALM      30.32F
$$

VAZ020-022-025-037-045-070300-
WEST CENTRAL AND SOUTHWEST VIRGINIA

CITY           SKY/WX    TMP DP  RH WIND       PRES   REMARKS
STAUNTON*      FAIR      35  22  59 CALM      30.28S
WAYNESBORO*    FAIR      31  17  56 CALM      30.25F
HOT SPRINGS VA FAIR      32  15  50 CALM      30.15F
LYNCHBURG      FAIR      30  18  60 CALM      30.29F
DANVILLE       FAIR      32  22  66 NE3       30.27F
SOUTH BOSTON*  FAIR      31  25  78 CALM      30.29F
MARTINSVILLE   FAIR      24  18  75 CALM      30.28F
ROANOKE        FAIR      33  20  58 CALM      30.29S
BLACKSBURG     CLOUDY    30  20  66 CALM      30.26F
DUBLIN*        CLOUDY    34  22  61 CALM      30.25F
MARION*        CLOUDY    34  18  52 CALM      30.24F
HILLSVILLE*    FAIR      33  16  49 NW6       30.20F
RICHLANDS*     CLOUDY    35   3  26 W5        30.23F
WISE*          CLOUDY    36  14  41 W5        30.23F
ABINGDON*      FAIR      34  20  54 CALM      30.24F
$$

MDZ021>025-VAZ099-100-070300-
SOUTHERN MARYLAND AND THE DELMARVA PENINSULA

CITY           SKY/WX    TMP DP  RH WIND       PRES   REMARKS
PATUXENT RIVER CLEAR     34  22  61 S6        30.33F
BAY BRIDGE APT   N/A     36  28  75 CALM      30.33S
LEONARDTOWN    CLEAR     32  25  74 CALM      30.35F
DOVER          PTCLDY    33  26  74 S5        30.31S
GEORGETOWN     PTCLDY    31  26  82 CALM      30.34S
EASTON         MOCLDY    32  25  74 CALM      30.37
CAMBRIDGE      CLEAR     30  27  86 CALM      30.33F
SALISBURY      CLEAR     28  26  92 CALM      30.34S
OCEAN CITY     CLEAR     30  27  88 CALM      30.34F
WALLOPS ISLAND FAIR      29  26  89 CALM      30.35R
ACCOMACK*      FAIR      28  25  86 CALM      30.35S
$$

NCZ012>017-030>032-070300-
NORTH CENTRAL AND EASTERN NORTH CAROLINA

CITY           SKY/WX    TMP DP  RH WIND       PRES   REMARKS
ROANOKE RAPIDS FAIR      32  27  80 CALM      30.31S
RALEIGH        CLOUDY    41  21  44 E6        30.29F
ELIZABETH CITY PTCLDY    38  32  79 NE7       30.32F
AHOSKIE*       CLEAR     33  25  72 CALM      30.32F
EDENTON*       CLOUDY    39  33  78 CALM      30.32F
CURRITUCK*     CLEAR     35  33  94 CALM      30.33S
KILL DEVIL HLS CLOUDY    42  32  68 N5        30.29F
MANTEO         CLOUDY    42  34  73 NE10      30.30F
CAPE HATTERAS  CLOUDY    45  37  73 NE10G18   30.27F
TARBORO*       CLOUDY    38  31  74 CALM      30.32S
GOLDSBORO      CLOUDY    43  27  52 NE7       30.26F
WASHINGTON     CLOUDY    40  32  71 CALM      30.29F
GREENVILLE     CLOUDY    43  28  56 E3        30.30F
NEW BERN       CLOUDY    43  31  62 NE12      30.28F
WILMINGTON     CLOUDY    45  30  55 NE14      30.22F
$$

VAZ048-070300-
ELSEWHERE

CITY           SKY/WX    TMP DP  RH WIND       PRES   REMARKS
HARRISBURG PA  PTCLDY    36  25  64 S7        30.27S
BALTIMORE      CLOUDY    35  22  58 S3        30.31R
ANNAPOLIS      PTCLDY    37  28  70 S5        30.32S
ANDREWS AFB    FAIR      34  22  61 S7        30.30S
PHILADELPHIA   MOCLDY    36  25  64 S7        30.32S
HENDERSON NC   CLOUDY    32  23  70 CALM      30.28F
GREENSBORO     MOCLDY    37  17  44 CALM      30.26S
ROCKY MOUNT    CLOUDY    37  31  78 NE5       30.30F
$$

VAZ100-070300-
MARINE

STATION/POSITION TIME  TEMP    WIND        PRES    WAVE   SWELL
                       AIR SEA DIR/SP/G            HT/PER HT/PER
                 (UTC) (F)     (DEG/KT/KT) (MB)    (FT/S) (FT/S)
BRANDYWINE LGT   0100   38     200/ 12/ 14 1027.0F
CAPE MAY NJ      0100   38 43  190/  6/  8 1026.8F
LEWES DE         0100   35 43  200/  4/  5 1027.3R
15NM E FENWICK I 0150   40 45              1027.6R   2/10
OCEAN-CITY-INLET 0100   38 42  250/  4/  5 1026.8R
WACHAPREAGUE VA  0100   39 45  170/  4/  5 1027.3F
GOOSES REEF MD   0200   39 40  200/  8/ 10 1028.0F   1/ 3
COVE POINT MD    0100   38     190/ 11/ 12 1028.1R
SOLOMONS ISLAND  0100   37 42  180/  4/  5   N/A
BISHOPS HEAD MD  0100   38 42  190/  5/  7 1026.6R
POTOMAC MD       0200   38 41  220/  8/  8 1026.4F   1
CAMBRIDGE MD     0100   35 40  190/  2/  4 1026.8R
LEWISETTA VA     0100   37 42  220/  5/  6 1027.4R
RAPPAHANNOCK LGT 0100          170/  3/  3 1027.8R
STINGRAY PT      0200   39 42  200/  6/  6 1027.2F   0
YORK RVR RNG VA  0100   40     180/  8/  8 1027.0R
YORKTOWN VA      0100   37 43  200/  2/  3 1027.6R
JAMESTOWN VA     0200   36 44   60/  2/  2   N/A     0
DOMINION TERM VA 0100   40     130/  6/  7 1027.5R
KIPTOPEKE VA     0100      43  130/  3/  3   N/A
CHES BAY BRIDGE  0100   40 44  130/  4/  5 1026.9F
CAPE HENRY VA    0100   38     150/  5/  6   N/A
CHESAPEAKE LGHT  0100   40      80/  3/  5 1028.0F
WILLOUBY STN VA  0100   39     150/  6/  7 1027.5S
CAPE HENRY BUOY  0128      46                N/A     3/ 7   2/11
1ST LANDING BUOY 0200      42                N/A     1/ 5
CAPE CHARLES BUO 0126      45                N/A     2/11   2/11
OFFSHORE WE BUOY 0121      49                N/A     3/10   3/10
64NM E OF VA BCH 0150   44 53   10/ 12/ 14 1025.8F   3/ 8   3/ 8
DUCK PIER NC     0100   42 45   30/  9/ 10 1026.1F
44100 DUCK FRF   0124      46                N/A     4/11   2/11
44056 DUCK FRF   0111      45                N/A     4/12   2/12
OREGON INLET NC  0100   43 47  360/  8/ 13 1026.0F
HATTERAS NC      0100   45 52   10/ 18/ 21 1024.7F
DIAMOND SHLS NC  0150   53 71  360/ 21/ 25 1023.8F   6/11   3/11
$$



USA.gov is the U.S. government's official web portal to all federal, state and local government web resources and services.